Location: Unspecified
(0.0000°N, 0.0000°E)
Time: 20:28:27
(UTC+00:00)

Vanguard 1 - Pass Details

Date: 22 June 2025
Orbit: 649 x 3822 km, 34.2° (Epoch: 12 July)

Event Time Altitude Azimuth Distance (km) Brightness Sun altitude
Rises 18:37:39 0° 289° (WNW) 7,850 17.1 -8.1°
Reaches altitude 10° 18:44:04 10° 282° (WNW) 6,584 15.8 -9.6°
Maximum altitude 19:01:34 38° 221° (SW) 3,535 13.0 -13.6°
Drops below altitude 10° 19:12:26 10° 156° (SSE) 4,114 12.8 -16.1°
Enters shadow 19:13:03 - 154° (SSE) 4,231 12.9 -16.2°
